KR8N Weather Reports


Display with metric or nautical units.
time (UTC)temp
F
wind
direction
speed
MPH
gust
MPH
rain 1hr
in
rain 24hr
in
rain mn
in
humidity
%
barometer
mb
20260510115652 55 126 2.0 2.0 0.00 0.00 0.00 84 1018.9
20260510115150 54 117 0.0 0.0 0.00 0.00 0.00 85 1018.9
20260510114645 54 114 0.0 0.0 0.00 0.00 0.00 88 1018.9
20260510114142 53 120 1.0 1.0 0.00 0.00 0.00 92 1018.9
20260510113637 52 119 0.0 0.0 0.00 0.00 0.00 95 1018.6
20260510113134 51 127 1.0 1.0 0.00 0.00 0.00 97 1018.4
20260510112631 51 119 1.0 1.0 0.00 0.00 0.00 97 1018.6
20260510112128 50 119 0.0 0.0 0.00 0.00 0.00 97 1018.6
20260510111624 49 119 1.0 1.0 0.00 0.00 0.00 97 1018.4
20260510111120 48 117 0.0 0.0 0.00 0.00 0.00 97 1018.3
20260510110616 48 117 1.0 1.0 0.00 0.00 0.00 97 1018.2
20260510110113 48 117 0.0 1.0 0.00 0.00 0.00 97 1018.3
20260510105609 47 117 0.0 0.0 0.00 0.00 0.00 97 1018.0
20260510105103 46 111 0.0 0.0 0.00 0.00 0.00 97 1018.2
20260510104600 46 106 0.0 0.0 0.00 0.00 0.00 97 1018.2
20260510104057 46 104 0.0 0.0 0.00 0.00 0.00 97 1017.9
20260510103554 46 105 0.0 0.0 0.00 0.00 0.00 97 1018.0
20260510103050 45 101 0.0 0.0 0.00 0.00 0.00 97 1017.8
20260510102545 44 101 1.0 1.0 0.00 0.00 0.00 97 1017.8
20260510102041 44 55 0.0 0.0 0.00 0.00 0.00 97 1017.5
20260510101539 44 55 0.0 0.0 0.00 0.00 0.00 97 1017.6
20260510101038 44 55 0.0 0.0 0.00 0.00 0.00 97 1017.5
20260510100533 44 55 0.0 0.0 0.00 0.00 0.00 97 1017.5
20260510100031 44 55 0.0 0.0 0.00 0.00 0.00 97 1017.5
20260510095527 44 55 0.0 0.0 0.00 0.00 0.00 97 1017.5
20260510095026 44 50 0.0 0.0 0.00 0.00 0.00 97 1017.3
20260510094521 44 57 0.0 0.0 0.00 0.00 0.00 97 1017.3
20260510094017 44 57 1.0 1.0 0.00 0.00 0.00 97 1017.2
20260510093512 45 58 0.0 0.0 0.00 0.00 0.00 97 1017.2
20260510093009 45 58 0.0 0.0 0.00 0.00 0.00 97 1017.1
20260510092507 44 58 0.0 0.0 0.00 0.00 0.00 97 1017.3
20260510092006 44 58 0.0 0.0 0.00 0.00 0.00 97 1017.1
20260510091503 44 58 0.0 0.0 0.00 0.00 0.00 97 1017.1
20260510090959 45 58 0.0 0.0 0.00 0.00 0.00 97 1017.0
20260510090456 45 58 0.0 0.0 0.00 0.00 0.00 97 1016.9
20260510085951 45 58 0.0 0.0 0.00 0.00 0.00 97 1016.9
20260510085447 45 58 0.0 0.0 0.00 0.00 0.00 96 1016.7
20260510084943 45 58 0.0 0.0 0.00 0.00 0.00 97 1016.8
20260510084440 45 57 0.0 0.0 0.00 0.00 0.00 96 1016.8
20260510083936 44 57 0.0 0.0 0.00 0.00 0.00 96 1016.7
20260510083433 44 57 0.0 0.0 0.00 0.00 0.00 96 1016.8
20260510082928 45 57 0.0 0.0 0.00 0.00 0.00 96 1016.8
20260510082427 44 57 0.0 0.0 0.00 0.00 0.00 96 1016.8
20260510081925 45 57 0.0 0.0 0.00 0.00 0.00 96 1016.8
20260510081421 45 57 0.0 0.0 0.00 0.00 0.00 96 1016.6
20260510080918 45 57 0.0 0.0 0.00 0.00 0.00 96 1016.7
20260510080417 45 57 0.0 0.0 0.00 0.00 0.00 96 1016.9
20260510075914 45 57 0.0 0.0 0.00 0.00 0.00 96 1016.6
20260510075412 45 57 0.0 0.0 0.00 0.00 0.00 96 1016.7
20260510074908 45 57 0.0 0.0 0.00 0.00 0.00 96 1016.7
20260510074405 44 56 0.0 0.0 0.00 0.00 0.00 96 1016.7
20260510073902 45 56 0.0 0.0 0.00 0.00 0.00 96 1016.7
20260510073357 45 56 0.0 0.0 0.00 0.00 0.00 95 1016.7
20260510072854 45 56 0.0 0.0 0.00 0.00 0.00 95 1016.6
20260510072351 45 56 0.0 0.0 0.00 0.00 0.00 95 1016.7
20260510071847 44 56 0.0 0.0 0.00 0.00 0.00 95 1016.6
20260510071343 45 56 0.0 0.0 0.00 0.00 0.00 95 1016.6
20260510070842 45 56 0.0 0.0 0.00 0.00 0.00 95 1016.4
20260510070338 45 56 0.0 0.0 0.00 0.00 0.00 95 1016.3
20260510065833 45 56 0.0 0.0 0.00 0.00 0.00 95 1016.3
20260510065330 46 56 0.0 0.0 0.00 0.00 0.00 95 1016.3
20260510064827 46 56 0.0 0.0 0.00 0.00 0.00 94 1016.2
20260510064325 46 56 0.0 0.0 0.00 0.00 0.00 94 1016.2
20260510063821 46 55 0.0 0.0 0.00 0.00 0.00 94 1016.4
20260510063317 47 54 0.0 0.0 0.00 0.00 0.00 94 1016.3
20260510062814 46 69 0.0 0.0 0.00 0.00 0.00 94 1016.2
20260510062309 46 60 0.0 0.0 0.00 0.00 0.00 93 1016.3
20260510061805 47 61 0.0 0.0 0.00 0.00 0.00 93 1016.3
20260510061302 47 58 0.0 0.0 0.00 0.00 0.00 93 1016.4
20260510060758 47 98 0.0 0.0 0.00 0.00 0.00 93 1016.3
20260510060255 47 99 0.0 0.0 0.00 0.00 0.00 93 1016.3
20260510055752 47 105 0.0 0.0 0.00 0.00 0.00 92 1016.3
20260510055250 48 70 0.0 0.0 0.00 0.00 0.00 92 1016.6
20260510054750 48 86 0.0 0.0 0.00 0.00 0.00 92 1016.6
20260510054246 48 156 2.0 2.0 0.00 0.00 0.00 92 1016.4
20260510053746 48 40 1.0 1.0 0.00 0.00 0.00 93 1016.4
20260510053242 48 135 1.0 1.0 0.00 0.00 0.00 93 1016.6
20260510052738 48 118 1.0 1.0 0.00 0.00 0.00 91 1016.3
20260510052234 48 117 0.0 0.0 0.00 0.00 0.00 91 1016.4
20260510051730 48 118 0.0 0.0 0.00 0.00 0.00 90 1016.6
20260510051227 49 118 0.0 0.0 0.00 0.00 0.00 91 1016.4
20260510050724 49 118 0.0 0.0 0.00 0.00 0.00 91 1016.4
20260510050221 49 118 1.0 0.0 0.00 0.00 0.00 90 1016.3
20260510045718 49 118 0.0 0.0 0.00 0.00 0.00 90 1016.6
20260510045214 49 118 1.0 0.0 0.00 0.00 0.00 89 1016.3
20260510044710 49 117 0.0 0.0 0.00 0.00 0.00 89 1016.4
20260510044209 50 117 0.0 0.0 0.00 0.00 0.00 88 1016.6
20260510043704 50 117 0.0 0.0 0.00 0.00 0.00 88 1016.4
20260510043201 50 118 0.0 0.0 0.00 0.00 0.00 88 1016.7
20260510042658 50 118 1.0 1.0 0.00 0.00 0.00 87 1016.7
20260510042154 51 118 0.0 0.0 0.00 0.00 0.00 86 1016.6
20260510041651 51 118 0.0 0.0 0.00 0.00 0.00 86 1016.4
20260510041148 51 119 1.0 1.0 0.00 0.00 0.00 87 1016.3
20260510040645 51 119 1.0 1.0 0.00 0.00 0.00 87 1016.4
20260510040142 50 116 1.0 1.0 0.00 0.00 0.00 87 1016.2
20260510035637 50 116 1.0 1.0 0.00 0.00 0.00 87 1016.3
20260510035133 51 115 0.0 0.0 0.00 0.00 0.00 86 1016.4
20260510034630 51 115 0.0 0.0 0.00 0.00 0.00 87 1016.6
20260510034127 50 116 1.0 1.0 0.00 0.00 0.00 87 1016.1
20260510033623 50 102 0.0 0.0 0.00 0.00 0.00 88 1016.1
20260510033121 50 102 1.0 1.0 0.00 0.00 0.00 88 1016.2
20260510032617 50 102 0.0 0.0 0.00 0.00 0.00 87 1016.3
20260510032113 50 102 0.0 0.0 0.00 0.00 0.00 86 1016.2
20260510031608 51 102 0.0 0.0 0.00 0.00 0.00 85 1016.4
20260510031104 51 102 0.0 0.0 0.00 0.00 0.00 84 1016.3
20260510030559 51 102 1.0 1.0 0.00 0.00 0.00 84 1016.3
20260510030057 52 102 0.0 0.0 0.00 0.00 0.00 83 1016.6
20260510025554 52 103 0.0 0.0 0.00 0.00 0.00 83 1016.6
20260510025052 52 100 0.0 0.0 0.00 0.00 0.00 83 1016.2
20260510024548 52 91 0.0 0.0 0.00 0.00 0.00 83 1016.0
20260510024044 52 91 0.0 0.0 0.00 0.00 0.00 83 1016.2
20260510023541 52 90 0.0 0.0 0.00 0.00 0.00 82 1016.2
20260510023039 53 90 0.0 0.0 0.00 0.00 0.00 80 1016.0
20260510022538 53 90 0.0 0.0 0.00 0.00 0.00 79 1016.0
20260510022038 53 90 0.0 0.0 0.00 0.00 0.00 79 1015.9
20260510021535 54 90 0.0 0.0 0.00 0.00 0.00 78 1015.9
20260510021033 54 90 0.0 0.0 0.00 0.00 0.00 78 1015.8
20260510020526 54 90 0.0 0.0 0.00 0.00 0.00 78 1015.9
20260510020022 54 90 0.0 0.0 0.00 0.00 0.00 77 1015.8
20260510015518 54 90 0.0 0.0 0.00 0.00 0.00 76 1015.9
20260510015014 55 90 0.0 0.0 0.00 0.00 0.00 75 1015.6
20260510014511 55 90 0.0 0.0 0.00 0.00 0.00 75 1015.3
20260510014008 55 90 0.0 0.0 0.00 0.00 0.00 74 1015.4
20260510013502 56 90 0.0 0.0 0.00 0.00 0.00 74 1015.4
20260510012958 56 90 0.0 0.0 0.00 0.00 0.00 72 1015.2
20260510012453 56 89 0.0 0.0 0.00 0.00 0.00 72 1015.1
20260510011948 56 89 0.0 0.0 0.00 0.00 0.00 71 1015.1
20260510011443 57 89 0.0 0.0 0.00 0.00 0.00 70 1015.0
20260510010940 56 87 1.0 1.0 0.00 0.00 0.00 71 1014.9
20260510010437 56 85 0.0 0.0 0.00 0.00 0.00 72 1014.7
20260510005934 56 85 0.0 0.0 0.00 0.00 0.00 71 1015.2
20260510005430 57 85 0.0 0.0 0.00 0.00 0.00 70 1014.9
20260510004927 57 85 0.0 0.0 0.00 0.00 0.00 69 1014.9
20260510004424 57 85 0.0 0.0 0.00 0.00 0.00 68 1014.7
20260510003922 58 85 0.0 0.0 0.00 0.00 0.00 67 1014.5
20260510003419 59 85 0.0 0.0 0.00 0.00 0.00 66 1014.6
20260510002918 59 85 0.0 0.0 0.00 0.00 0.00 64 1014.4
20260510002416 60 85 0.0 0.0 0.00 0.00 0.00 63 1014.4
20260510001912 61 83 0.0 0.0 0.00 0.00 0.00 62 1014.3
20260510001410 61 82 0.0 0.0 0.00 0.00 0.00 61 1014.3
20260510000906 62 79 0.0 0.0 0.00 0.00 0.00 60 1014.2
20260510000404 62 111 1.0 1.0 0.00 0.00 0.00 60 1014.2
20260509235859 63 59 0.0 0.0 0.00 0.00 0.00 59 1014.1
20260509235356 63 90 0.0 0.0 0.00 0.00 0.00 57 1014.0
20260509234852 64 66 0.0 0.0 0.00 0.00 0.00 55 1014.3
20260509234350 65 93 0.0 0.0 0.00 0.00 0.00 54 1014.1
20260509233848 66 261 0.0 0.0 0.00 0.00 0.00 53 1014.0
20260509233345 66 280 1.0 2.0 0.00 0.00 0.00 50 1014.0
20260509232840 67 82 0.0 1.0 0.00 0.00 0.00 52 1013.9
20260509232339 67 5 2.0 2.0 0.00 0.00 0.00 50 1014.0
20260509231834 67 50 1.0 1.0 0.00 0.00 0.00 51 1014.0
20260509231331 67 319 2.0 2.0 0.00 0.00 0.00 50 1014.0
20260509230829 67 286 3.0 3.0 0.00 0.00 0.00 49 1013.8
20260509230326 67 90 1.0 1.0 0.00 0.00 0.00 50 1013.8
20260509225821 67 336 2.0 2.0 0.00 0.00 0.00 49 1013.9
20260509225318 67 58 1.0 1.0 0.00 0.00 0.00 51 1013.9
20260509224814 66 301 3.0 3.0 0.00 0.00 0.00 52 1014.0
20260509224310 68 298 4.0 4.0 0.00 0.00 0.00 48 1013.8
20260509223807 68 121 2.0 1.0 0.00 0.00 0.00 47 1013.9
20260509223304 67 66 0.0 0.0 0.00 0.00 0.00 50 1014.0
20260509222801 66 88 1.0 1.0 0.00 0.00 0.00 50 1014.0
20260509222256 67 339 2.0 3.0 0.00 0.00 0.00 49 1014.2
20260509221753 67 57 1.0 1.0 0.00 0.00 0.00 49 1014.1
20260509221249 67 69 0.0 0.0 0.00 0.00 0.00 50 1014.3
20260509220745 66 44 1.0 2.0 0.00 0.00 0.00 50 1014.1
20260509220241 66 109 1.0 1.0 0.00 0.00 0.00 49 1014.3
20260509215737 66 10 2.0 2.0 0.00 0.00 0.00 52 1014.2
20260509215234 66 31 1.0 1.0 0.00 0.00 0.00 51 1014.2
20260509214731 66 294 4.0 3.0 0.00 0.00 0.00 49 1014.3
20260509214228 66 295 3.0 3.0 0.00 0.00 0.00 48 1014.2
20260509213725 66 39 2.0 3.0 0.00 0.00 0.00 48 1014.2
20260509213220 66 255 5.0 6.0 0.00 0.00 0.00 48 1014.1
20260509212718 66 44 1.0 1.0 0.00 0.00 0.00 49 1014.2
20260509212215 67 292 4.0 6.0 0.00 0.00 0.00 44 1014.0
20260509211711 68 115 1.0 1.0 0.00 0.00 0.00 45 1014.2
20260509211208 67 271 5.0 6.0 0.00 0.00 0.00 44 1014.1
20260509210704 66 99 1.0 1.0 0.00 0.00 0.00 48 1014.0
20260509210201 67 298 2.0 2.0 0.00 0.00 0.00 46 1013.9
20260509205701 67 252 4.0 4.0 0.00 0.00 0.00 44 1013.8
20260509205201 67 275 5.0 6.0 0.00 0.00 0.00 43 1013.9
20260509204657 67 353 2.0 3.0 0.00 0.00 0.00 46 1013.8
20260509204154 67 114 1.0 1.0 0.00 0.00 0.00 49 1013.7
20260509203649 67 334 3.0 3.0 0.00 0.00 0.00 44 1013.9
20260509203148 67 177 2.0 2.0 0.00 0.00 0.00 48 1013.5
20260509202643 68 288 2.0 3.0 0.00 0.00 0.00 44 1013.7
20260509202138 68 304 6.0 8.0 0.00 0.00 0.00 42 1013.6
20260509201628 67 71 0.0 0.0 0.00 0.00 0.00 43 1013.6
20260509201126 68 352 2.0 2.0 0.00 0.00 0.00 43 1013.5
20260509200621 67 357 2.0 2.0 0.00 0.00 0.00 44 1013.5
20260509200117 67 57 2.0 2.0 0.00 0.00 0.00 45 1013.4
20260509195612 66 283 4.0 4.0 0.00 0.00 0.00 43 1013.6
20260509195107 67 268 6.0 7.0 0.00 0.00 0.00 42 1013.4
20260509194606 67 52 0.0 0.0 0.00 0.00 0.00 45 1013.5
20260509194105 68 269 5.0 6.0 0.00 0.00 0.00 42 1013.6
20260509193600 67 286 4.0 7.0 0.00 0.00 0.00 40 1013.5
20260509193056 67 113 1.0 1.0 0.00 0.00 0.00 44 1013.5
20260509192553 67 296 3.0 3.0 0.00 0.00 0.00 42 1013.4
20260509192043 68 255 6.0 7.0 0.00 0.00 0.00 40 1013.3
20260509191542 66 28 3.0 3.0 0.00 0.00 0.00 46 1013.4
20260509191039 66 123 2.0 2.0 0.00 0.00 0.00 46 1013.6
20260509190536 66 131 2.0 2.0 0.00 0.00 0.00 45 1013.5
20260509190034 67 285 4.0 4.0 0.00 0.00 0.00 44 1013.6
20260509185531 68 119 2.0 2.0 0.00 0.00 0.00 44 1013.6
20260509185027 70 25 3.0 3.0 0.00 0.00 0.00 41 1013.5
20260509184525 70 79 1.0 2.0 0.00 0.00 0.00 42 1013.6
20260509184021 69 92 1.0 1.0 0.00 0.00 0.00 43 1013.4
20260509183516 67 56 1.0 1.0 0.00 0.00 0.00 47 1013.5
20260509183013 68 274 6.0 8.0 0.00 0.00 0.00 43 1013.3
20260509182509 68 281 4.0 3.0 0.00 0.00 0.00 44 1013.6
20260509182006 68 184 2.0 3.0 0.00 0.00 0.00 50 1013.5
20260509181505 68 312 6.0 8.0 0.00 0.00 0.00 42 1013.4
20260509181002 66 152 3.0 3.0 0.00 0.00 0.00 46 1013.6
20260509180457 66 2 2.0 2.0 0.00 0.00 0.00 52 1013.5
20260509175954 66 292 2.0 2.0 0.00 0.00 0.00 48 1013.6
20260509175450 65 137 2.0 2.0 0.00 0.00 0.00 46 1013.6
20260509174948 64 34 1.0 1.0 0.00 0.00 0.00 54 1013.7
20260509174444 64 294 7.0 10.0 0.00 0.00 0.00 47 1013.7
20260509173939 65 271 5.0 7.0 0.00 0.00 0.00 48 1013.8
20260509173438 65 278 3.0 4.0 0.00 0.00 0.00 51 1013.8
20260509172935 64 181 1.0 2.0 0.00 0.00 0.00 50 1013.8
20260509172432 64 304 5.0 7.0 0.00 0.00 0.00 48 1013.7
20260509171928 65 355 2.0 1.0 0.00 0.00 0.00 51 1013.9
20260509171424 64 115 2.0 2.0 0.00 0.00 0.00 49 1013.9
20260509170921 64 218 3.0 3.0 0.00 0.00 0.00 52 1014.0
20260509170416 64 146 2.0 2.0 0.00 0.00 0.00 50 1013.9
20260509165912 64 285 3.0 3.0 0.00 0.00 0.00 51 1014.0
20260509165406 63 49 1.0 1.0 0.00 0.00 0.00 54 1014.2
20260509164902 63 77 1.0 1.0 0.00 0.00 0.00 54 1014.2
20260509164359 63 281 2.0 2.0 0.00 0.00 0.00 56 1014.3
20260509163854 64 104 1.0 2.0 0.00 0.00 0.00 55 1014.0
20260509163352 64 166 3.0 3.0 0.00 0.00 0.00 52 1014.3
20260509162851 64 125 2.0 2.0 0.00 0.00 0.00 53 1014.1
20260509162349 64 279 4.0 6.0 0.00 0.00 0.00 54 1014.2
20260509161846 63 280 4.0 4.0 0.00 0.00 0.00 53 1014.1
20260509161342 63 323 2.0 2.0 0.00 0.00 0.00 53 1014.4
20260509160838 63 50 1.0 1.0 0.00 0.00 0.00 55 1014.1
20260509160334 63 315 5.0 4.0 0.00 0.00 0.00 55 1013.9
20260509155829 64 293 5.0 6.0 0.00 0.00 0.00 52 1013.7
20260509155326 63 262 2.0 3.0 0.00 0.00 0.00 55 1013.9
20260509154822 63 10 0.0 1.0 0.00 0.00 0.00 56 1013.7
20260509154319 62 69 0.0 0.0 0.00 0.00 0.00 55 1013.7
20260509153816 62 107 2.0 2.0 0.00 0.00 0.00 54 1013.9
20260509153313 62 357 2.0 3.0 0.00 0.00 0.00 54 1013.8
20260509152809 62 298 1.0 1.0 0.00 0.00 0.00 56 1013.8
20260509152306 63 125 2.0 2.0 0.00 0.00 0.00 55 1013.9
20260509151803 63 129 2.0 3.0 0.00 0.00 0.00 54 1013.9
20260509151258 63 86 1.0 2.0 0.00 0.00 0.00 55 1014.1
20260509150757 62 71 0.0 0.0 0.00 0.00 0.00 58 1014.1
20260509150255 63 306 5.0 4.0 0.00 0.00 0.00 53 1013.9
20260509145752 63 144 1.0 1.0 0.00 0.00 0.00 55 1013.9
20260509145251 64 285 2.0 3.0 0.00 0.00 0.00 52 1014.1
20260509144748 64 7 2.0 2.0 0.00 0.00 0.00 52 1014.0
20260509144245 64 280 1.0 1.0 0.00 0.00 0.00 54 1013.9
20260509143742 63 121 1.0 1.0 0.00 0.00 0.00 61 1013.9
20260509143240 64 320 2.0 2.0 0.00 0.00 0.00 53 1014.0
20260509142736 63 342 6.0 8.0 0.00 0.00 0.00 54 1014.0
20260509142232 64 303 4.0 4.0 0.00 0.00 0.00 56 1013.9
20260509141727 63 285 2.0 3.0 0.00 0.00 0.00 59 1013.9
20260509141225 63 95 2.0 3.0 0.00 0.00 0.00 57 1013.9
20260509140722 62 295 3.0 3.0 0.00 0.00 0.00 58 1013.9
20260509140222 62 87 2.0 2.0 0.00 0.00 0.00 57 1013.9
20260509135716 60 110 1.0 1.0 0.00 0.00 0.00 61 1013.9
20260509135214 61 146 2.0 3.0 0.00 0.00 0.00 60 1013.8
20260509134711 60 135 2.0 2.0 0.00 0.00 0.00 62 1014.1
20260509134208 59 150 2.0 3.0 0.00 0.00 0.00 63 1013.9
20260509133705 59 161 3.0 3.0 0.00 0.00 0.00 61 1013.8
20260509133202 59 111 1.0 1.0 0.00 0.00 0.00 64 1014.1
20260509132700 59 164 3.0 3.0 0.00 0.00 0.00 64 1014.0
20260509132159 59 171 2.0 3.0 0.00 0.00 0.00 60 1013.8
20260509131655 59 136 2.0 1.0 0.00 0.00 0.00 63 1013.8
20260509131151 58 161 3.0 3.0 0.00 0.00 0.00 61 1013.7
20260509130647 58 161 4.0 4.0 0.00 0.00 0.00 60 1013.7
20260509130144 58 140 2.0 2.0 0.00 0.00 0.00 62 1013.6
20260509125640 57 146 2.0 2.0 0.00 0.00 0.00 63 1013.9
20260509125137 57 120 1.0 1.0 0.00 0.00 0.00 65 1014.0
20260509124634 56 121 1.0 1.0 0.00 0.00 0.00 66 1013.6
20260509124131 56 136 2.0 2.0 0.00 0.00 0.00 67 1013.9
20260509123629 55 155 3.0 3.0 0.00 0.00 0.00 66 1014.0
20260509123125 55 94 0.0 0.0 0.00 0.00 0.00 68 1014.4
20260509122621 54 92 1.0 2.0 0.00 0.00 0.00 67 1014.4
20260509122119 54 108 0.0 0.0 0.00 0.00 0.00 70 1014.5
20260509121615 54 127 1.0 1.0 0.00 0.00 0.00 69 1014.3
20260509121113 53 113 0.0 0.0 0.00 0.00 0.00 70 1014.4
20260509120610 53 112 0.0 0.0 0.00 0.00 0.00 72 1014.3
20260509120109 53 121 1.0 1.0 0.00 0.00 0.00 71 1014.2